Location: ??????
(55.7522°N, 37.6156°E)
Time: 17:54:14
(UTC+00:00)

Okean 2 Rocket - Pass Details

Date: 14 June 2025
Orbit: 611 x 635 km, 82.5° (Epoch: 13 July)

Event Time Altitude Azimuth Distance (km) Brightness Sun altitude
Rises 22:39:09 0° 347° (NNW) 2,947 7.7 -9.6°
Reaches altitude 10° 22:41:24 10° 347° (NNW) 2,031 6.8 -9.5°
Maximum altitude 22:45:55 88° 262° (W) 640 3.1 -9.3°
Drops below altitude 10° 22:50:23 10° 171° (S) 2,003 5.1 -9.1°
Enters shadow 22:50:38 - 171° (S) 2,108 5.2 -9.1°
